User: anonymous   Login
Location: ČR
(50.0000°N, 15.0000°E)
Time: 00:31:37
(UTC+00:00)
Language:

DELFI C3 - Orbit

View from above orbital plane
View from above orbital plane
View from above satellite
View from above satellite

Ground track
Ground track

The orbit data is extracted from the following two-line orbital elements,

1 32789U 08021G   21340.50933393  .00003361  00000-0  21039-3 0  9996
2 32789  97.3596   9.1944 0009870 270.1108  89.8991 15.10012014742787
Epoch (UTC): 06 December 2021 12:13:26
Eccentricity: 0.0009870
inclination: 97.3596°
perigee height: 529 km
apogee height: 543 km
right ascension of ascending node: 9.1944°
argument of perigee: 270.1108°
revolutions per day: 15.10012014
mean anomaly at epoch: 89.8991°
orbit number at epoch: 74278

The dashed part of the orbit path shows where the satellite is in the earth's shadow,  

DLR